Latest Coastal Weather Observations for Low Head

IDV60701

Issued at 10:02 am EST Wednesday 29 June 2016 (issued every 10 minutes, with the page automatically refreshed every 10 minutes)

About coastal observations | Map of coastal stations | Coastal observations for VIC | Marine services | Other Formats
Station Details ID: 091293 Name: LOW HEAD Lat: -41.05 Lon: 146.79 Height: 3.0 m
Data from the previous 72 hours. | See also: Recent months at Low Head
Date/Time
EST
Temp
°C
Wind Pressure Rain since
9am
mm
Weather Cloud Vis
km
Sea
Height
m
Swell
Dir  Spd
kts
Gust
kts
hPa Trend Height
m
Period
s
Dir
29/10:00am 13.6 W 16 19 1022.3 - 0.0 - - - - - - -
29/09:30am 13.5 W 17 21 1022.2 - 0.0 - - - - - - -
29/09:00am 13.3 W 17 21 1022.2 - 0.8 - - - - - - -
29/08:30am 13.1 W 19 22 1021.8 - 0.8 - - - - - - -
29/08:00am 12.9 WNW 19 23 1021.3 - 0.8 - - - - - - -
29/07:30am 12.9 WNW 19 24 1021.1 - 0.8 - - - - - - -
29/07:00am 12.9 WNW 17 21 1020.9 - 0.8 - - - - - - -
29/06:30am 12.9 WNW 18 22 1020.7 - 0.8 - - - - - - -
29/06:00am 13.0 WNW 18 23 1020.6 - 0.8 - - - - - - -
29/05:30am 12.5 WNW 15 18 1020.3 - 0.8 - - - - - - -
29/05:00am 12.6 WNW 16 21 1020.0 - 0.8 - - - - - - -
29/04:30am 12.8 W 19 23 1019.9 - 0.8 - - - - - - -
29/04:00am 12.7 W 19 23 1019.9 - 0.8 - - - - - - -
29/03:30am 12.4 WNW 22 25 1019.6 - 0.8 - - - - - - -
29/03:00am 12.6 W 22 29 1019.8 - 0.8 - - - - - - -
29/02:30am 12.6 WNW 18 27 1019.9 - 0.8 - - - - - - -
29/02:27am 12.8 WNW 16 27 1019.9 - 0.8 - - - - - - -
29/02:00am 12.8 WNW 18 21 1019.8 - 0.8 - - - - - - -
29/01:30am 13.1 WNW 19 23 1019.6 - 0.8 - - - - - - -
29/01:00am 13.1 WNW 19 24 1019.8 - 0.8 - - - - - - -
29/12:30am 12.7 WNW 20 24 1019.9 - 0.8 - - - - - - -
29/12:00am 12.8 WNW 23 28 1019.9 - 0.8 Recent precip. - - - - - -
 
Date/Time
EST
Temp
°C
Wind Pressure Rain since
9am
mm
Weather Cloud Vis
km
Sea
Height
m
Swell
Dir  Spd
kts
Gust
kts
hPa Trend Height
m
Period
s
Dir
28/11:30pm 13.1 WNW 19 22 1019.9 - 0.0 - - - - - - -
28/11:00pm 13.4 WNW 19 23 1019.9 - 0.0 - - - - - - -
28/10:30pm 13.4 WNW 15 17 1020.0 - 0.0 - - - - - - -
28/10:00pm 13.4 WNW 18 22 1020.1 - 0.0 - - - - - - -
28/09:30pm 13.4 WNW 19 23 1020.1 - 0.0 - - - - - - -
28/09:00pm 13.4 WNW 19 23 1020.0 - 0.0 - - - - - - -
28/08:30pm 13.3 WNW 19 22 1019.8 - 0.0 - - - - - - -
28/08:00pm 13.4 WNW 19 22 1019.7 - 0.0 - - - - - - -
28/07:30pm 13.3 WNW 17 20 1019.4 - 0.0 - - - - - - -
28/07:00pm 13.3 WNW 18 22 1019.2 - 0.0 - - - - - - -
28/06:30pm 13.4 WNW 17 20 1019.0 - 0.0 - - - - - - -
28/06:00pm 13.3 WNW 18 21 1018.7 - 0.0 - - - - - - -
28/05:30pm 13.3 WNW 20 25 1018.3 - 0.0 - - - - - - -
28/05:00pm 13.1 WNW 17 21 1017.9 - 0.0 - - - - - - -
28/04:30pm 13.6 WNW 19 22 1017.7 - 0.0 - - - - - - -
28/04:00pm 13.8 WNW 19 23 1017.6 - 0.0 - - - - - - -
28/03:30pm 14.2 WNW 19 22 1017.4 - 0.0 - - - - - - -
28/03:00pm 14.3 WNW 18 22 1017.1 - 0.0 - - - - - - -
28/02:30pm 14.3 WNW 19 22 1016.9 - 0.0 - - - - - - -
28/02:00pm 14.4 WNW 21 25 1017.1 - 0.0 - - - - - - -
28/01:30pm 14.3 WNW 19 22 1017.2 - 0.0 - - - - - - -
28/01:00pm 14.2 WNW 18 22 1017.2 - 0.0 - - - - - - -
28/12:30pm 13.9 WNW 20 23 1017.2 - 0.0 - - - - - - -
28/12:00pm 13.7 WNW 22 26 1017.3 - 0.0 - - - - - - -
28/11:30am 13.6 WNW 24 28 1017.2 - 0.0 - - - - - - -
28/11:00am 13.6 WNW 22 26 1017.6 - 0.0 - - - - - - -
28/10:30am 13.6 WNW 20 24 1017.5 - 0.0 - - - - - - -
28/10:00am 13.4 WNW 20 23 1017.4 - 0.0 - - - - - - -
28/09:30am 13.1 WNW 21 25 1017.2 - 0.0 - - - - - - -
28/09:00am 12.9 WNW 22 25 1016.9 - 0.0 - - - - - - -
28/08:30am 12.9 WNW 18 21 1016.8 - 0.0 - - - - - - -
28/08:00am 12.8 WNW 18 22 1016.8 - 0.0 - - - - - - -
28/07:30am 12.7 W 20 25 1016.3 - 0.0 - - - - - - -
28/07:00am 12.6 W 21 24 1015.9 - 0.0 - - - - - - -
28/06:30am 12.4 W 20 23 1015.7 - 0.0 - - - - - - -
28/06:00am 12.5 W 20 23 1015.5 - 0.0 - - - - - - -
28/05:30am 12.5 W 19 23 1015.2 - 0.0 - - - - - - -
28/05:00am 12.4 W 16 19 1015.2 - 0.0 - - - - - - -
28/04:30am 12.4 W 17 19 1015.2 - 0.0 - - - - - - -
28/04:00am 12.5 WNW 20 24 1015.1 - 0.0 - - - - - - -
28/03:30am 12.4 W 19 23 1015.1 - 0.0 - - - - - - -
28/03:00am 12.1 W 17 20 1015.2 - 0.0 - - - - - - -
28/02:30am 12.0 WNW 18 21 1015.1 - 0.0 - - - - - - -
28/02:00am 11.8 WNW 16 18 1015.1 - 0.0 - - - - - - -
28/01:30am 11.7 W 17 20 1015.2 - 0.0 - - - - - - -
28/01:00am 11.7 WNW 18 21 1015.3 - 0.0 - - - - - - -
28/12:30am 11.6 W 18 21 1015.3 - 0.0 - - - - - - -
28/12:00am 11.4 WNW 18 22 1015.1 - 0.0 - - - - - - -
 
Date/Time
EST
Temp
°C
Wind Pressure Rain since
9am
mm
Weather Cloud Vis
km
Sea
Height
m
Swell
Dir  Spd
kts
Gust
kts
hPa Trend Height
m
Period
s
Dir
27/11:30pm 11.5 W 20 23 1015.2 - 0.0 - - - - - - -
27/11:00pm 11.5 WNW 20 22 1015.2 - 0.0 - - - - - - -
27/10:30pm 11.7 W 19 22 1015.3 - 0.0 - - - - - - -
27/10:00pm 11.6 W 18 20 1015.2 - 0.0 - - - - - - -
27/09:30pm 11.5 W 17 19 1015.1 - 0.0 - - - - - - -
27/09:00pm 11.7 W 16 19 1015.2 - 0.0 - - - - - - -
27/08:30pm 11.7 W 18 20 1014.9 - 0.0 - - - - - - -
27/08:00pm 11.8 W 19 22 1014.7 - 0.0 - - - - - - -
27/07:30pm 11.8 W 20 23 1014.7 - 0.0 - - - - - - -
27/07:00pm 11.9 W 19 22 1014.4 - 0.0 - - - - - - -
27/06:30pm 11.9 W 17 20 1014.1 - 0.0 - - - - - - -
27/06:00pm 12.0 W 17 20 1014.0 - 0.0 - - - - - - -
27/05:30pm 12.0 W 18 20 1013.5 - 0.0 - - - - - - -
27/05:00pm 12.4 W 18 21 1013.0 - 0.0 - - - - - - -
27/04:30pm 12.4 WNW 20 23 1012.8 - 0.0 - - - - - - -
27/04:00pm 12.6 W 20 24 1012.8 - 0.0 - - - - - - -
27/03:30pm 13.0 W 17 19 1012.7 - 0.0 - - - - - - -
27/03:00pm 13.0 W 17 20 1012.5 - 0.0 - - - - - - -
27/02:30pm 13.0 W 15 18 1012.3 - 0.0 - - - - - - -
27/02:00pm 12.4 W 13 16 1012.3 - 0.0 - - - - - - -
27/01:30pm 12.2 W 13 15 1012.3 - 0.0 - - - - - - -
27/01:00pm 11.8 W 12 14 1012.3 - 0.0 - - - - - - -
27/12:30pm 11.8 W 13 15 1012.6 - 0.0 - - - - - - -
27/12:00pm 11.3 W 15 18 1012.7 - 0.0 - - - - - - -
27/11:30am 10.9 W 12 14 1012.9 - 0.0 - - - - - - -
27/11:00am 10.8 W 12 14 1013.1 - 0.0 - - - - - - -
27/10:30am 10.4 W 12 14 1013.1 - 0.0 - - - - - - -
27/10:00am 10.3 SSW 6 8 1012.9 - 0.0 - - - - - - -
27/09:30am 9.6 SSW 7 10 1012.7 - 0.0 - - - - - - -
27/09:00am 10.2 WSW 8 9 1012.4 - 2.0 - - - - - - -
27/08:30am 9.3 CALM 0 0 1012.2 - 2.0 - - - - - - -
27/08:00am 9.0 SSW 5 6 1011.9 - 2.0 - - - - - - -
27/07:30am 9.9 WSW 9 10 1011.7 - 2.0 - - - - - - -
27/07:00am 10.1 WSW 9 11 1011.2 - 2.0 - - - - - - -
27/06:30am 10.1 SW 6 8 1011.0 - 2.0 - - - - - - -
27/06:00am 10.4 SSW 7 9 1010.9 - 2.0 Recent precip. - - - - - -
27/05:30am 11.1 WSW 13 15 1010.4 - 2.0 - - - - - - -
27/05:00am 11.6 WNW 17 20 1010.5 - 1.4 - - - - - - -
27/04:30am 11.7 NW 17 20 1010.6 - 1.2 - - - - - - -
27/04:00am 11.5 WNW 15 17 1010.7 - 0.6 - - - - - - -
27/03:30am 11.2 WNW 18 21 1011.0 - 0.6 - - - - - - -
27/03:00am 11.1 WNW 23 25 1011.2 - 0.4 Rain - - - - - -
27/02:30am 11.1 NW 22 26 1011.2 - 0.2 - - - - - - -
27/02:00am 12.5 NW 23 28 1011.3 - 0.0 - - - - - - -
27/01:30am 12.4 NNW 22 26 1011.2 - 0.0 - - - - - - -
27/01:00am 12.2 NW 21 25 1011.3 - 0.0 - - - - - - -
27/12:30am 12.2 NW 21 24 1011.5 - 0.0 - - - - - - -
27/12:00am 12.1 NW 20 24 1011.8 - 0.0 - - - - - - -
 
Date/Time
EST
Temp
°C
Wind Pressure Rain since
9am
mm
Weather Cloud Vis
km
Sea
Height
m
Swell
Dir  Spd
kts
Gust
kts
hPa Trend Height
m
Period
s
Dir
26/11:30pm 11.9 NW 19 23 1012.1 - 0.0 - - - - - - -
26/11:00pm 11.9 NW 17 19 1012.3 - 0.0 - - - - - - -
26/10:30pm 11.8 NW 16 21 1012.4 - 0.0 - - - - - - -
26/10:00pm 11.7 NW 16 20 1012.6 - 0.0 - - - - - - -
26/09:30pm 11.6 NW 18 21 1012.8 - 0.0 - - - - - - -
26/09:00pm 11.6 NW 18 22 1013.0 - 0.0 - - - - - - -
26/08:30pm 11.7 NW 19 23 1013.2 - 0.0 - - - - - - -
26/08:00pm 11.7 NW 20 23 1013.2 - 0.0 - - - - - - -
26/07:30pm 11.8 NW 16 20 1013.2 - 0.0 - - - - - - -
26/07:00pm 11.6 WNW 18 21 1013.2 - 0.0 - - - - - - -
26/06:30pm 11.8 WNW 18 23 1013.3 - 0.0 - - - - - - -
26/06:00pm 11.7 WNW 19 23 1013.2 - 0.0 - - - - - - -
26/05:30pm 11.8 WNW 18 21 1013.2 - 0.0 - - - - - - -
26/05:00pm 11.8 WNW 19 22 1013.3 - 0.0 - - - - - - -
26/04:30pm 12.1 WNW 19 23 1013.3 - 0.0 - - - - - - -
26/04:00pm 12.1 WNW 18 21 1013.5 - 0.0 - - - - - - -
26/03:30pm 12.3 WNW 19 22 1013.6 - 0.0 - - - - - - -
26/03:00pm 12.5 WNW 18 21 1013.7 - 0.0 - - - - - - -
26/02:30pm 12.8 WNW 19 22 1013.9 - 0.0 - - - - - - -
26/02:00pm 12.8 WNW 19 22 1014.1 - 0.0 - - - - - - -
26/01:30pm 12.6 WNW 15 19 1014.4 - 0.0 - - - - - - -
26/01:00pm 11.2 WSW 9 10 1014.7 - 0.0 - - - - - - -
26/12:30pm 11.0 W 8 9 1015.2 - 0.0 - - - - - - -
26/12:00pm 11.0 W 7 9 1015.8 - 0.0 - - - - - - -
26/11:30am 9.9 SW 4 6 1016.3 - 0.0 - - - - - - -
26/11:00am 8.9 S 4 5 1016.7 - 0.0 - - - - - - -
26/10:30am 8.1 S 5 6 1017.0 - 0.0 - - - - - - -

Other Formats:

Comma delimited format used in spreadsheet applications
http://www.bom.gov.au/fwo/IDV60701/IDV60701.95964.axf

JavaScript Object Notation format (JSON) in row-major order
http://www.bom.gov.au/fwo/IDV60701/IDV60701.95964.json